Terug naar catalogus

STARLINK-36376

ActiefCommunicatieSSO
NORAD 67590·PAYLOAD·🇺🇸 United States

Gelanceerd Jan 29, 2026 vanaf Vandenberg Space Force Base

Loading…

Volgende Passages (komende 24 uur)

TLE

VersSource: CelesTrak SupGP

Epoch: Sep 14, 2026, 22:44 UTC

1 67590C 26018B   26257.94770833 -.00009975  00000+0 -30967-3 0  2573
2 67590  97.2853 321.4710 0000968  84.9804  92.7283 15.33441968    13

Volg STARLINK-36376 in realtime met AllMySat

Download on the App Store